• In Moldova, Republic
  • List of Countries
  • For 7 days
  • Water Temperature
  • Satellite Maps
  • Weather Map
  • Weather Widgets
  • user-avatar
    Login

    Hourly Weather Salzburg

    Today, 24 January, Wednesday

    Time Temperature Precipitation Wind Pressure Humidity
    00:00 -8°C° 0 mm 2 mps 629 mmHg 75%
    01:00 -8°C° 0 mm 2 mps 629 mmHg 72%
    02:00 -8°C° 0 mm 2 mps 629 mmHg 71%
    03:00 -8°C° 0 mm 2 mps 629 mmHg 70%
    04:00 -7°C° 0 mm 2 mps 629 mmHg 68%
    05:00 -7°C° 0 mm 2 mps 629 mmHg 68%
    06:00 -7°C° 0 mm 2 mps 629 mmHg 67%
    07:00 -7°C° 0 mm 2 mps 629 mmHg 67%
    08:00 -5°C° 0 mm 2 mps 630 mmHg 70%
    09:00 -2°C° 0 mm 1 mps 630 mmHg 72%
    10:00 0°C° 0 mm 1 mps 631 mmHg 75%
    11:00 +1°C° 0 mm 1 mps 630 mmHg 80%
    12:00 +1°C° 0 mm 1 mps 630 mmHg 86%
    13:00 +2°C° 0 mm 1 mps 630 mmHg 91%
    14:00 +2°C° 0 mm 1 mps 630 mmHg 89%
    15:00 +1°C° 0 mm 1 mps 629 mmHg 88%
    16:00 -1°C° 0 mm 2 mps 629 mmHg 86%
    17:00 -2°C° 0 mm 2 mps 629 mmHg 83%
    18:00 -4°C° 0 mm 2 mps 628 mmHg 80%
    19:00 -5°C° 0 mm 2 mps 628 mmHg 77%
    20:00 -5°C° 0 mm 2 mps 628 mmHg 75%
    21:00 -5°C° 0 mm 2 mps 627 mmHg 74%
    22:00 -5°C° 0 mm 2 mps 627 mmHg 73%
    23:00 -5°C° 0 mm 2 mps 627 mmHg 72%

    Tomorrow, 25 January, Thursday

    Time Temperature Precipitation Wind Pressure Humidity
    00:00 -5°C° 0 mm 2 mps 627 mmHg 72%
    01:00 -6°C° 0 mm 2 mps 627 mmHg 71%
    02:00 -6°C° 0 mm 2 mps 627 mmHg 71%
    03:00 -6°C° 0 mm 2 mps 627 mmHg 70%
    04:00 -6°C° 0 mm 2 mps 626 mmHg 70%
    05:00 -6°C° 0 mm 2 mps 626 mmHg 69%
    06:00 -6°C° 0 mm 2 mps 626 mmHg 69%
    07:00 -6°C° 0 mm 2 mps 626 mmHg 69%
    08:00 -5°C° 0 mm 2 mps 626 mmHg 72%
    09:00 -4°C° 0 mm 2 mps 626 mmHg 74%
    10:00 -2°C° 0 mm 2 mps 626 mmHg 77%
    11:00 -2°C° 0 mm 2 mps 626 mmHg 82%
    12:00 -1°C° 0 mm 2 mps 625 mmHg 86%
    13:00 +1°C° 0 mm 2 mps 625 mmHg 90%
    14:00 -1°C° 0 mm 2 mps 625 mmHg 91%
    15:00 -1°C° 0 mm 2 mps 624 mmHg 92%
    16:00 -2°C° 0 mm 2 mps 624 mmHg 92%
    17:00 -3°C° 0 mm 2 mps 623 mmHg 91%
    18:00 -4°C° 0 mm 2 mps 623 mmHg 91%
    19:00 -4°C° 0 mm 2 mps 623 mmHg 90%
    20:00 -5°C° 0 mm 2 mps 622 mmHg 90%
    21:00 -5°C° 0 mm 2 mps 622 mmHg 89%
    22:00 -5°C° 0 mm 2 mps 622 mmHg 89%
    23:00 -5°C° 0 mm 2 mps 622 mmHg 89%

    Day after tomorrow, 26 January, Friday

    Time Temperature Precipitation Wind Pressure Humidity
    00:00 -5°C° 0 mm 2 mps 622 mmHg 89%
    01:00 -5°C° 0 mm 2 mps 621 mmHg 88%
    02:00 -4°C° 0 mm 2 mps 621 mmHg 88%
    03:00 -4°C° 0 mm 2 mps 621 mmHg 88%
    04:00 -4°C° 0 mm 2 mps 621 mmHg 88%
    05:00 -4°C° 0 mm 2 mps 621 mmHg 89%
    06:00 -4°C° 0 mm 2 mps 621 mmHg 89%
    07:00 -4°C° 0 mm 2 mps 621 mmHg 89%
    08:00 -3°C° 0 mm 2 mps 622 mmHg 91%
    09:00 -3°C° 0 mm 2 mps 622 mmHg 92%
    10:00 -2°C° 0 mm 2 mps 622 mmHg 93%
    11:00 -2°C° 0 mm 2 mps 623 mmHg 94%
    12:00 -1°C° 0 mm 2 mps 623 mmHg 94%
    13:00 -1°C° 0 mm 2 mps 623 mmHg 94%
    14:00 -1°C° 0.1 mm 2 mps 623 mmHg 95%
    15:00 -2°C° 0.1 mm 2 mps 623 mmHg 96%
    16:00 0°C° 0.1 mm 1 mps 623 mmHg 97%
    17:00 -1°C° 0.2 mm 1 mps 623 mmHg 97%
    18:00 -1°C° 0.2 mm 1 mps 623 mmHg 97%
    19:00 -2°C° 0.2 mm 1 mps 623 mmHg 97%
    20:00 -2°C° 0.6 mm 1 mps 623 mmHg 97%
    21:00 -2°C° 0.6 mm 1 mps 624 mmHg 97%
    22:00 -2°C° 0.6 mm 1 mps 624 mmHg 97%
    23:00 -2°C° 1.1 mm 1 mps 624 mmHg 97%

    27 January, Saturday

    Time Temperature Precipitation Wind Pressure Humidity
    00:00 -2°C° 1.1 mm 1 mps 625 mmHg 97%
    01:00 -2°C° 1.1 mm 1 mps 625 mmHg 97%
    02:00 -2°C° 1.1 mm 1 mps 625 mmHg 97%
    03:00 -2°C° 1.1 mm 1 mps 625 mmHg 97%
    04:00 -2°C° 1.1 mm 1 mps 625 mmHg 97%
    05:00 -2°C° 0.8 mm 1 mps 626 mmHg 97%
    06:00 -2°C° 0.8 mm 1 mps 626 mmHg 97%
    07:00 -2°C° 0.8 mm 1 mps 627 mmHg 97%
    08:00 -2°C° 0.5 mm 1 mps 627 mmHg 97%
    09:00 -2°C° 0.5 mm 1 mps 628 mmHg 96%
    10:00 -2°C° 0.5 mm 1 mps 628 mmHg 96%
    11:00 -1°C° 0.3 mm 1 mps 629 mmHg 96%
    12:00 -1°C° 0.3 mm 1 mps 629 mmHg 95%
    13:00 -1°C° 0.3 mm 1 mps 630 mmHg 95%
    14:00 -1°C° 0.1 mm 1 mps 630 mmHg 95%
    15:00 -1°C° 0.1 mm 1 mps 630 mmHg 95%
    16:00 -1°C° 0.1 mm 1 mps 630 mmHg 96%
    17:00 -2°C° 0 mm 0 mps 630 mmHg 96%
    18:00 -3°C° 0 mm 0 mps 631 mmHg 96%
    19:00 -3°C° 0 mm 0 mps 631 mmHg 97%
    20:00 -3°C° 0 mm 0 mps 631 mmHg 96%
    21:00 -4°C° 0 mm 0 mps 632 mmHg 96%
    22:00 -4°C° 0 mm 0 mps 632 mmHg 95%
    23:00 -5°C° 0 mm 0 mps 632 mmHg 94%

    28 January, Sunday

    Time Temperature Precipitation Wind Pressure Humidity
    00:00 -4°C° 0 mm 1 mps 632 mmHg 93%
    01:00 -6°C° 0 mm 1 mps 631 mmHg 92%
    02:00 -6°C° 0 mm 1 mps 632 mmHg 91%
    03:00 -6°C° 0 mm 1 mps 632 mmHg 90%
    04:00 -6°C° 0 mm 1 mps 632 mmHg 89%
    05:00 -6°C° 0 mm 1 mps 632 mmHg 88%
    06:00 -6°C° 0 mm 1 mps 632 mmHg 87%
    07:00 -6°C° 0 mm 1 mps 632 mmHg 87%
    08:00 -4°C° 0 mm 1 mps 633 mmHg 86%
    09:00 -2°C° 0 mm 1 mps 634 mmHg 86%
    10:00 -1°C° 0 mm 1 mps 635 mmHg 86%
    11:00 0°C° 0 mm 1 mps 635 mmHg 87%
    12:00 0°C° 0 mm 1 mps 635 mmHg 89%
    13:00 +1°C° 0 mm 1 mps 635 mmHg 91%
    14:00 +1°C° 0 mm 1 mps 634 mmHg 91%
    15:00 0°C° 0 mm 1 mps 634 mmHg 91%
    16:00 0°C° 0 mm 1 mps 634 mmHg 91%
    17:00 -1°C° 0 mm 1 mps 634 mmHg 89%
    18:00 -2°C° 0 mm 1 mps 634 mmHg 86%
    19:00 -6°C° 0 mm 2 mps 634 mmHg 83%
    20:00 -6°C° 0 mm 2 mps 634 mmHg 80%
    21:00 -6°C° 0 mm 2 mps 634 mmHg 77%
    22:00 -6°C° 0 mm 2 mps 635 mmHg 75%
    23:00 -6°C° 0 mm 2 mps 634 mmHg 72%

    29 January, Monday

    Time Temperature Precipitation Wind Pressure Humidity
    00:00 -4°C° 0 mm 1 mps 634 mmHg 70%
    01:00 -4°C° 0 mm 1 mps 634 mmHg 68%
    02:00 -4°C° 0 mm 1 mps 634 mmHg 69%
    03:00 -4°C° 0 mm 1 mps 634 mmHg 71%
    04:00 -4°C° 0 mm 1 mps 634 mmHg 72%
    05:00 -4°C° 0 mm 1 mps 634 mmHg 74%
    06:00 -4°C° 0 mm 1 mps 634 mmHg 75%
    07:00 -3°C° 0 mm 1 mps 634 mmHg 77%
    08:00 -2°C° 0 mm 1 mps 635 mmHg 79%
    09:00 -1°C° 0 mm 1 mps 635 mmHg 82%
    10:00 +1°C° 0 mm 1 mps 635 mmHg 84%
    11:00 +1°C° 0 mm 1 mps 635 mmHg 86%
    12:00 +1°C° 0 mm 0 mps 635 mmHg 87%
    13:00 +1°C° 0 mm 0 mps 635 mmHg 89%
    14:00 +1°C° 0 mm 0 mps 634 mmHg 90%
    15:00 0°C° 0 mm 0 mps 634 mmHg 91%
    16:00 0°C° 0 mm 0 mps 634 mmHg 92%
    17:00 0°C° 0 mm 1 mps 633 mmHg 89%
    18:00 -1°C° 0 mm 1 mps 633 mmHg 87%
    19:00 -2°C° 0 mm 1 mps 633 mmHg 85%
    20:00 -2°C° 0 mm 1 mps 633 mmHg 83%
    21:00 -2°C° 0 mm 1 mps 633 mmHg 81%
    22:00 -3°C° 0 mm 1 mps 633 mmHg 79%
    23:00 -3°C° 0 mm 1 mps 632 mmHg 77%
    Show more